This demonstration page uses our WeatherBlox Daily Observations layout. Learn more.

Left ArrowRight Arrow

44.31136, -96.79839

Hourly Observations for August 18, 2022

Temp ( °F °C ) Dew Point ( °F °C ) Humidity (%) Winds ( mph kmh ) Pressure ( in mb ) Visibility ( mi km ) Precip ( " mm )
12:56 am 00:56 Partly Cloudy 68 20 65 18.3 90 90 S 9 15 30.06 1018 10 16 0.00 0.00
1:56 am 01:56 Clear 67 19.4 65 18.3 93 93 S 7 11 30.05 1018 10 16 0.00 0.00
2:56 am 02:56 Clear 65 18.3 64 17.8 97 97 S 8 13 30.02 1017 10 16 0.00 0.00
3:56 am 03:56 Clear 65 18.3 62 16.7 90 90 SSW 6 9 30.02 1017 10 16 0.00 0.00
4:56 am 04:56 Clear 65 18.3 61 16.1 87 87 S 7 11 30.00 1016 10 16 0.00 0.00
5:56 am 05:56 Clear 64 17.8 61 16.1 90 90 S 9 15 29.99 1016 10 16 0.00 0.00
6:56 am 06:56 Mostly Sunny 65 18.3 61 16.1 87 87 S 10 17 29.98 1015 10 16 0.00 0.00
7:56 am 07:56 Sunny 66 18.9 62 16.7 87 87 S 8 13 29.97 1015 10 16 0.00 0.00
8:56 am 08:56 Sunny 67 19.4 62 16.7 84 84 S 7 11 29.97 1015 10 16 0.00 0.00
9:56 am 09:56 Mostly Cloudy 70 21.1 62 16.7 76 76 SSW 6 9 29.97 1015 10 16 0.00 0.00
10:56 am 10:56 Partly Cloudy 76 24.4 60 15.6 58 58 S 9 15 29.94 1014 10 16 0.00 0.00
11:56 am 11:56 Sunny 78 25.6 63 17.2 60 60 SSE 12 19 29.91 1013 10 16 0.00 0.00
12:56 pm 12:56 Sunny 80 26.7 64 17.8 58 58 SSW 12 19 29.90 1013 10 16 0.00 0.00
1:56 pm 13:56 Mostly Cloudy 81 27.2 65 18.3 58 58 Calm 29.90 1013 10 16 0.00 0.00
2:56 pm 14:56 Mostly Cloudy 81 27.2 64 17.8 57 57 NNW 5 7 29.88 1012 10 16 0.00 0.00
3:42 pm 15:42 Partly Cloudy 82 28 66 19 58 58 N 14 22 29.77 1008 10 16 0.00 0.00
3:56 pm 15:56 Partly Cloudy 80 26.7 66 18.9 62 62 NNE 12 19 29.88 1012 10 16 0.00 0.00
4:56 pm 16:56 Sunny 80 26.7 65 18.3 60 60 N 9 15 29.88 1012 10 16 0.00 0.00
5:56 pm 17:56 Sunny 81 27.2 62 16.7 53 53 NNW 12 19 29.87 1012 10 16 0.00 0.00
6:56 pm 18:56 Sunny 75 23.9 60 15.6 60 60 N 9 15 29.88 1012 10 16 0.00 0.00
7:56 pm 19:56 Sunny 71 21.7 60 15.6 68 68 NNW 9 15 29.89 1012 10 16 0.00 0.00
8:56 pm 20:56 Clear 66 18.9 61 16.1 84 84 Calm 29.90 1013 10 16 0.00 0.00
9:56 pm 21:56 Clear 64 17.8 60 15.6 87 87 SW 3 6 29.91 1013 10 16 0.00 0.00
10:56 pm 22:56 Clear 62 16.7 61 16.1 96 96 Calm 29.91 1013 10 16 0.00 0.00
11:56 pm 23:56 Clear 60 15.6 60 15.6 100 100 W 3 6 29.91 1013 10 16 0.00 0.00

Powered by AerisWeather